| time (UTC) | temp F | wind direction | speed knots | gust knots | rain 1hr in | rain 24hr in | rain mn in | humidity % | barometer mb |
| 20260507153615 | 49 | 310 | 2.6 | 7.8 | 0.00 | 0.00 | 0.00 | 54 | 1015.8 |
| 20260507153112 | 49 | 234 | 3.5 | 12.2 | 0.00 | 0.00 | 0.00 | 53 | 1015.8 |
| 20260507152608 | 50 | 242 | 3.5 | 12.2 | 0.00 | 0.00 | 0.00 | 50 | 1015.8 |
| 20260507152104 | 50 | 311 | 2.6 | 7.0 | 0.00 | 0.00 | 0.00 | 54 | 1015.8 |
| 20260507151600 | 50 | 294 | 4.3 | 13.0 | 0.00 | 0.00 | 0.00 | 58 | 1015.8 |
| 20260507151057 | 50 | 319 | 4.3 | 13.0 | 0.00 | 0.00 | 0.00 | 55 | 1015.8 |
| 20260507150554 | 50 | 311 | 4.3 | 12.2 | 0.00 | 0.00 | 0.00 | 58 | 1015.8 |
| 20260507150051 | 50 | 317 | 4.3 | 12.2 | 0.00 | 0.00 | 0.00 | 54 | 1015.8 |
| 20260507145546 | 50 | 299 | 4.3 | 12.2 | 0.00 | 0.00 | 0.00 | 58 | 1015.8 |
| 20260507145044 | 49 | 315 | 3.5 | 12.2 | 0.00 | 0.00 | 0.00 | 57 | 1015.8 |
| 20260507144540 | 49 | 279 | 2.6 | 12.2 | 0.00 | 0.00 | 0.00 | 56 | 1015.8 |
| 20260507144038 | 49 | 308 | 2.6 | 5.2 | 0.00 | 0.00 | 0.00 | 57 | 1015.8 |
| 20260507143534 | 49 | 213 | 2.6 | 8.7 | 0.00 | 0.00 | 0.00 | 62 | 1015.8 |
| 20260507143032 | 48 | 279 | 4.3 | 10.4 | 0.00 | 0.00 | 0.00 | 58 | 1015.8 |
| 20260507142527 | 48 | 309 | 3.5 | 10.4 | 0.00 | 0.00 | 0.00 | 59 | 1015.8 |
| 20260507142025 | 48 | 326 | 2.6 | 7.8 | 0.00 | 0.00 | 0.00 | 59 | 1015.8 |
| 20260507141521 | 49 | 288 | 2.6 | 7.8 | 0.00 | 0.00 | 0.00 | 60 | 1015.8 |
| 20260507141017 | 49 | 258 | 1.7 | 7.8 | 0.00 | 0.00 | 0.00 | 63 | 1015.8 |
| 20260507140514 | 48 | 292 | 1.7 | 7.0 | 0.00 | 0.00 | 0.00 | 65 | 1015.8 |
| 20260507140012 | 47 | 59 | 2.6 | 7.0 | 0.00 | 0.00 | 0.00 | 67 | 1015.8 |
| 20260507135509 | 47 | 306 | 2.6 | 7.0 | 0.00 | 0.00 | 0.00 | 68 | 1015.8 |
| 20260507135006 | 46 | 287 | 2.6 | 7.0 | 0.00 | 0.00 | 0.00 | 69 | 1015.8 |
| 20260507134502 | 45 | 9 | 2.6 | 7.0 | 0.00 | 0.00 | 0.00 | 67 | 1015.8 |
| 20260507133958 | 45 | 306 | 1.7 | 7.0 | 0.00 | 0.00 | 0.00 | 69 | 1015.8 |
| 20260507133454 | 45 | 257 | 1.7 | 7.0 | 0.00 | 0.00 | 0.00 | 67 | 1015.8 |
| 20260507132953 | 45 | 283 | 1.7 | 7.0 | 0.00 | 0.00 | 0.00 | 68 | 1015.8 |
| 20260507132448 | 45 | 261 | 2.6 | 8.7 | 0.00 | 0.00 | 0.00 | 67 | 1015.8 |
| 20260507131945 | 45 | 279 | 2.6 | 8.7 | 0.00 | 0.00 | 0.00 | 66 | 1015.5 |
| 20260507131442 | 47 | 298 | 3.5 | 10.4 | 0.00 | 0.00 | 0.00 | 66 | 1015.5 |
| 20260507130939 | 46 | 289 | 4.3 | 10.4 | 0.00 | 0.00 | 0.00 | 67 | 1015.5 |
| 20260507130436 | 46 | 338 | 2.6 | 9.6 | 0.00 | 0.00 | 0.00 | 68 | 1015.5 |
| 20260507125935 | 46 | 279 | 1.7 | 9.6 | 0.00 | 0.00 | 0.00 | 70 | 1015.5 |
| 20260507125433 | 44 | 293 | 0.9 | 3.5 | 0.00 | 0.00 | 0.00 | 70 | 1015.5 |
| 20260507124930 | 44 | 266 | 0.9 | 3.5 | 0.00 | 0.00 | 0.00 | 72 | 1015.5 |
| 20260507124426 | 44 | 267 | 0.9 | 3.5 | 0.00 | 0.00 | 0.00 | 73 | 1015.1 |
| 20260507123924 | 44 | 263 | 1.7 | 7.8 | 0.00 | 0.00 | 0.00 | 75 | 1015.1 |
| 20260507123421 | 44 | 242 | 1.7 | 7.8 | 0.00 | 0.00 | 0.00 | 75 | 1015.1 |
| 20260507122918 | 44 | 313 | 1.7 | 3.5 | 0.00 | 0.00 | 0.00 | 77 | 1015.1 |
| 20260507122413 | 43 | 260 | 1.7 | 5.2 | 0.00 | 0.00 | 0.00 | 79 | 1015.1 |
| 20260507121909 | 42 | 279 | 1.7 | 5.2 | 0.00 | 0.00 | 0.00 | 80 | 1015.1 |
| 20260507121404 | 42 | 281 | 0.9 | 2.6 | 0.00 | 0.00 | 0.00 | 82 | 1015.1 |
| 20260507120902 | 41 | 17 | 0.0 | 2.6 | 0.00 | 0.00 | 0.00 | 84 | 1015.1 |
| 20260507120358 | 41 | 291 | 0.0 | 2.6 | 0.00 | 0.00 | 0.00 | 85 | 1015.1 |
| 20260507115854 | 40 | 294 | 0.0 | 2.6 | 0.00 | 0.00 | 0.00 | 86 | 1015.1 |
| 20260507115350 | 39 | 36 | 0.0 | 1.7 | 0.00 | 0.00 | 0.00 | 86 | 1015.1 |
| 20260507114846 | 39 | 279 | 0.0 | 1.7 | 0.00 | 0.00 | 0.00 | 86 | 1015.1 |
| 20260507114343 | 38 | 277 | 0.0 | 1.7 | 0.00 | 0.00 | 0.00 | 87 | 1015.1 |
| 20260507113841 | 38 | 277 | 0.0 | 0.0 | 0.00 | 0.00 | 0.00 | 87 | 1014.8 |
| 20260507113337 | 37 | 277 | 0.0 | 0.0 | 0.00 | 0.00 | 0.00 | 87 | 1014.8 |
| 20260507112835 | 37 | 277 | 0.0 | 0.0 | 0.00 | 0.00 | 0.00 | 87 | 1014.8 |
| 20260507112332 | 36 | 277 | 0.0 | 0.0 | 0.00 | 0.00 | 0.00 | 88 | 1014.8 |
| 20260507111830 | 36 | 277 | 0.0 | 0.0 | 0.00 | 0.00 | 0.00 | 88 | 1014.8 |
| 20260507111326 | 35 | 277 | 0.0 | 0.0 | 0.00 | 0.00 | 0.00 | 89 | 1014.8 |
| 20260507110822 | 35 | 277 | 0.0 | 0.0 | 0.00 | 0.00 | 0.00 | 88 | 1014.8 |
| 20260507110319 | 35 | 277 | 0.0 | 0.0 | 0.00 | 0.00 | 0.00 | 88 | 1014.8 |
| 20260507105816 | 35 | 277 | 0.0 | 0.0 | 0.00 | 0.00 | 0.00 | 88 | 1014.5 |
| 20260507105312 | 35 | 277 | 0.0 | 0.0 | 0.00 | 0.00 | 0.00 | 88 | 1014.5 |
| 20260507104809 | 35 | 277 | 0.0 | 0.0 | 0.00 | 0.00 | 0.00 | 87 | 1014.5 |
| 20260507104306 | 35 | 277 | 0.0 | 0.0 | 0.00 | 0.00 | 0.00 | 87 | 1014.5 |
| 20260507103802 | 35 | 277 | 0.0 | 0.0 | 0.00 | 0.00 | 0.00 | 87 | 1014.5 |
| 20260507103258 | 35 | 277 | 0.0 | 0.0 | 0.00 | 0.00 | 0.00 | 86 | 1014.5 |
| 20260507102754 | 35 | 277 | 0.0 | 0.0 | 0.00 | 0.00 | 0.00 | 86 | 1014.5 |
| 20260507102251 | 35 | 277 | 0.0 | 0.0 | 0.00 | 0.00 | 0.00 | 86 | 1014.5 |
| 20260507101747 | 35 | 277 | 0.0 | 0.0 | 0.00 | 0.00 | 0.00 | 85 | 1014.1 |
| 20260507101242 | 35 | 277 | 0.0 | 0.0 | 0.00 | 0.00 | 0.00 | 85 | 1014.1 |
| 20260507100740 | 36 | 277 | 0.0 | 0.0 | 0.00 | 0.00 | 0.00 | 85 | 1014.1 |
| 20260507100238 | 36 | 277 | 0.0 | 1.7 | 0.00 | 0.00 | 0.00 | 84 | 1014.1 |
| 20260507095735 | 36 | 277 | 0.0 | 1.7 | 0.00 | 0.00 | 0.00 | 84 | 1014.1 |
| 20260507095226 | 36 | 277 | 0.0 | 0.0 | 0.00 | 0.00 | 0.00 | 84 | 1014.5 |
| 20260507094723 | 36 | 277 | 0.0 | 0.9 | 0.00 | 0.00 | 0.00 | 84 | 1014.5 |
| 20260507094220 | 36 | 277 | 0.0 | 0.9 | 0.00 | 0.00 | 0.00 | 84 | 1014.1 |
| 20260507093717 | 36 | 277 | 0.0 | 0.9 | 0.00 | 0.00 | 0.00 | 83 | 1014.1 |
| 20260507093216 | 37 | 277 | 0.0 | 0.9 | 0.00 | 0.00 | 0.00 | 83 | 1014.1 |
| 20260507092713 | 37 | 277 | 0.0 | 0.9 | 0.00 | 0.00 | 0.00 | 83 | 1014.1 |
| 20260507092209 | 37 | 277 | 0.0 | 0.9 | 0.00 | 0.00 | 0.00 | 83 | 1014.1 |
| 20260507091706 | 37 | 277 | 0.0 | 0.9 | 0.00 | 0.00 | 0.00 | 83 | 1014.1 |
| 20260507091202 | 37 | 277 | 0.0 | 0.0 | 0.00 | 0.00 | 0.00 | 83 | 1014.5 |
| 20260507090657 | 37 | 277 | 0.0 | 0.0 | 0.00 | 0.00 | 0.00 | 83 | 1014.5 |
| 20260507090155 | 38 | 277 | 0.0 | 0.0 | 0.00 | 0.00 | 0.00 | 82 | 1014.5 |
| 20260507085652 | 38 | 277 | 0.0 | 0.0 | 0.00 | 0.00 | 0.00 | 82 | 1014.5 |
| 20260507085149 | 38 | 277 | 0.0 | 0.0 | 0.00 | 0.00 | 0.00 | 82 | 1014.5 |
| 20260507084646 | 38 | 277 | 0.0 | 0.0 | 0.00 | 0.00 | 0.00 | 81 | 1014.5 |
| 20260507084142 | 39 | 277 | 0.0 | 0.0 | 0.00 | 0.00 | 0.00 | 80 | 1014.5 |
| 20260507083639 | 39 | 277 | 0.0 | 0.0 | 0.00 | 0.00 | 0.00 | 79 | 1014.5 |
| 20260507083136 | 39 | 277 | 0.0 | 0.0 | 0.00 | 0.00 | 0.00 | 79 | 1014.5 |
| 20260507082631 | 40 | 277 | 0.0 | 0.0 | 0.00 | 0.00 | 0.00 | 78 | 1014.5 |
| 20260507082128 | 40 | 277 | 0.0 | 0.9 | 0.00 | 0.00 | 0.00 | 77 | 1014.5 |
| 20260507081625 | 40 | 277 | 0.0 | 1.7 | 0.00 | 0.00 | 0.00 | 76 | 1014.5 |
| 20260507081121 | 41 | 277 | 0.0 | 1.7 | 0.00 | 0.00 | 0.00 | 74 | 1014.5 |
| 20260507080618 | 41 | 282 | 0.9 | 4.3 | 0.00 | 0.00 | 0.00 | 72 | 1014.8 |
| 20260507080114 | 42 | 306 | 1.7 | 4.3 | 0.00 | 0.00 | 0.00 | 70 | 1014.5 |
| 20260507075609 | 42 | 319 | 1.7 | 4.3 | 0.00 | 0.00 | 0.00 | 69 | 1014.5 |
| 20260507075105 | 42 | 330 | 1.7 | 5.2 | 0.00 | 0.00 | 0.00 | 69 | 1014.5 |
| 20260507074602 | 42 | 323 | 1.7 | 5.2 | 0.00 | 0.00 | 0.00 | 68 | 1014.5 |
| 20260507074101 | 42 | 305 | 1.7 | 5.2 | 0.00 | 0.00 | 0.00 | 67 | 1014.8 |
| 20260507073556 | 42 | 318 | 2.6 | 7.0 | 0.00 | 0.00 | 0.00 | 67 | 1014.8 |
| 20260507073053 | 43 | 306 | 1.7 | 7.0 | 0.00 | 0.00 | 0.00 | 67 | 1014.8 |
| 20260507072551 | 43 | 304 | 2.6 | 7.0 | 0.00 | 0.00 | 0.00 | 66 | 1014.5 |
| 20260507072048 | 43 | 281 | 3.5 | 9.6 | 0.00 | 0.00 | 0.00 | 65 | 1014.8 |
| 20260507071545 | 43 | 323 | 3.5 | 9.6 | 0.00 | 0.00 | 0.00 | 65 | 1014.8 |
| 20260507071041 | 43 | 319 | 2.6 | 7.0 | 0.00 | 0.00 | 0.00 | 65 | 1014.8 |
| 20260507070539 | 43 | 321 | 2.6 | 7.8 | 0.00 | 0.00 | 0.00 | 65 | 1014.8 |
| 20260507070035 | 44 | 291 | 3.5 | 7.8 | 0.00 | 0.00 | 0.00 | 65 | 1014.8 |
| 20260507065532 | 44 | 21 | 2.6 | 7.8 | 0.00 | 0.00 | 0.00 | 65 | 1014.8 |
| 20260507065029 | 44 | 296 | 2.6 | 7.0 | 0.00 | 0.00 | 0.00 | 65 | 1014.8 |
| 20260507064527 | 44 | 334 | 2.6 | 7.0 | 0.00 | 0.00 | 0.00 | 65 | 1014.8 |
| 20260507064025 | 44 | 294 | 2.6 | 7.0 | 0.00 | 0.00 | 0.00 | 65 | 1015.1 |
| 20260507063522 | 44 | 326 | 2.6 | 7.0 | 0.00 | 0.00 | 0.00 | 65 | 1015.1 |
| 20260507063019 | 44 | 325 | 1.7 | 4.3 | 0.00 | 0.00 | 0.00 | 65 | 1015.1 |
| 20260507062516 | 44 | 286 | 2.6 | 7.0 | 0.00 | 0.00 | 0.00 | 65 | 1015.1 |
| 20260507062014 | 44 | 238 | 3.5 | 10.4 | 0.00 | 0.00 | 0.00 | 64 | 1015.1 |
| 20260507061511 | 44 | 311 | 2.6 | 10.4 | 0.00 | 0.00 | 0.00 | 64 | 1015.1 |
| 20260507061009 | 44 | 298 | 2.6 | 7.0 | 0.00 | 0.00 | 0.00 | 64 | 1015.1 |
| 20260507060506 | 44 | 323 | 3.5 | 8.7 | 0.00 | 0.00 | 0.00 | 65 | 1015.1 |
| 20260507060003 | 44 | 337 | 3.5 | 8.7 | 0.00 | 0.00 | 0.00 | 64 | 1015.1 |
| 20260507055457 | 44 | 326 | 4.3 | 10.4 | 0.00 | 0.00 | 0.00 | 64 | 1015.1 |
| 20260507054954 | 44 | 294 | 5.2 | 12.2 | 0.00 | 0.00 | 0.00 | 63 | 1015.1 |
| 20260507054450 | 44 | 286 | 4.3 | 12.2 | 0.00 | 0.00 | 0.00 | 63 | 1015.1 |
| 20260507053948 | 44 | 304 | 3.5 | 10.4 | 0.00 | 0.00 | 0.00 | 64 | 1015.1 |
| 20260507053446 | 44 | 0 | 3.5 | 7.8 | 0.00 | 0.00 | 0.00 | 64 | 1015.1 |
| 20260507052944 | 44 | 289 | 2.6 | 8.7 | 0.00 | 0.00 | 0.00 | 65 | 1015.1 |
| 20260507052441 | 44 | 309 | 3.5 | 9.6 | 0.00 | 0.00 | 0.00 | 65 | 1015.1 |
| 20260507051938 | 44 | 314 | 3.5 | 9.6 | 0.00 | 0.00 | 0.00 | 65 | 1015.5 |
| 20260507051436 | 44 | 319 | 3.5 | 8.7 | 0.00 | 0.00 | 0.00 | 66 | 1015.1 |
| 20260507050932 | 44 | 288 | 3.5 | 7.8 | 0.00 | 0.00 | 0.00 | 66 | 1015.1 |
| 20260507050429 | 45 | 331 | 3.5 | 9.6 | 0.00 | 0.00 | 0.00 | 66 | 1015.5 |
| 20260507045926 | 45 | 318 | 3.5 | 9.6 | 0.00 | 0.00 | 0.00 | 66 | 1015.1 |
| 20260507045422 | 45 | 315 | 3.5 | 8.7 | 0.00 | 0.00 | 0.00 | 66 | 1015.5 |
| 20260507044920 | 45 | 302 | 3.5 | 10.4 | 0.00 | 0.00 | 0.00 | 66 | 1015.5 |
| 20260507044416 | 45 | 313 | 2.6 | 10.4 | 0.00 | 0.00 | 0.00 | 67 | 1015.1 |
| 20260507043912 | 45 | 343 | 3.5 | 10.4 | 0.00 | 0.00 | 0.00 | 67 | 1015.1 |
| 20260507043409 | 45 | 290 | 4.3 | 8.7 | 0.00 | 0.00 | 0.00 | 67 | 1015.1 |
| 20260507042905 | 45 | 270 | 3.5 | 7.8 | 0.00 | 0.00 | 0.00 | 68 | 1015.1 |
| 20260507042402 | 45 | 300 | 2.6 | 7.0 | 0.00 | 0.00 | 0.00 | 69 | 1015.1 |
| 20260507041857 | 45 | 312 | 2.6 | 8.7 | 0.00 | 0.00 | 0.00 | 70 | 1015.1 |
| 20260507041354 | 45 | 247 | 2.6 | 8.7 | 0.00 | 0.00 | 0.00 | 71 | 1015.1 |
| 20260507040852 | 45 | 309 | 1.7 | 6.1 | 0.00 | 0.00 | 0.00 | 72 | 1015.1 |
| 20260507040347 | 45 | 267 | 0.9 | 6.1 | 0.00 | 0.00 | 0.00 | 72 | 1015.1 |
| 20260507035844 | 45 | 279 | 0.9 | 5.2 | 0.00 | 0.00 | 0.00 | 71 | 1015.1 |
| 20260507035339 | 44 | 250 | 0.0 | 1.7 | 0.00 | 0.00 | 0.00 | 70 | 1015.1 |
| 20260507034837 | 44 | 226 | 0.0 | 0.9 | 0.00 | 0.00 | 0.00 | 70 | 1015.1 |
| 20260507034334 | 44 | 226 | 0.0 | 0.9 | 0.00 | 0.00 | 0.00 | 70 | 1015.1 |
| 20260507033832 | 44 | 226 | 0.0 | 0.9 | 0.00 | 0.00 | 0.00 | 70 | 1015.1 |
| 20260507033330 | 44 | 225 | 0.0 | 0.0 | 0.00 | 0.00 | 0.00 | 69 | 1015.1 |
| 20260507032826 | 44 | 225 | 0.0 | 0.0 | 0.00 | 0.00 | 0.00 | 69 | 1015.1 |
| 20260507032322 | 44 | 225 | 0.0 | 0.9 | 0.00 | 0.00 | 0.00 | 68 | 1015.1 |
| 20260507031819 | 44 | 225 | 0.0 | 1.7 | 0.00 | 0.00 | 0.00 | 68 | 1015.1 |
| 20260507031316 | 45 | 225 | 0.0 | 1.7 | 0.00 | 0.00 | 0.00 | 68 | 1014.8 |
| 20260507030812 | 45 | 225 | 0.0 | 1.7 | 0.00 | 0.00 | 0.00 | 67 | 1015.1 |
| 20260507030310 | 45 | 225 | 0.0 | 1.7 | 0.00 | 0.00 | 0.00 | 66 | 1015.1 |
| 20260507025807 | 45 | 225 | 0.0 | 1.7 | 0.00 | 0.00 | 0.00 | 66 | 1015.1 |
| 20260507025306 | 45 | 225 | 0.0 | 1.7 | 0.00 | 0.00 | 0.00 | 66 | 1015.1 |
| 20260507024802 | 45 | 225 | 0.0 | 1.7 | 0.00 | 0.00 | 0.00 | 65 | 1015.1 |
| 20260507024259 | 45 | 250 | 0.0 | 0.9 | 0.00 | 0.00 | 0.00 | 66 | 1015.1 |
| 20260507023755 | 45 | 250 | 0.0 | 0.9 | 0.00 | 0.00 | 0.00 | 64 | 1015.1 |
| 20260507023251 | 45 | 216 | 0.0 | 1.7 | 0.00 | 0.00 | 0.00 | 65 | 1015.1 |
| 20260507022749 | 45 | 216 | 0.0 | 1.7 | 0.00 | 0.00 | 0.00 | 65 | 1015.1 |
| 20260507022245 | 45 | 216 | 0.0 | 1.7 | 0.00 | 0.00 | 0.00 | 64 | 1015.1 |
| 20260507021741 | 45 | 217 | 0.9 | 2.6 | 0.00 | 0.00 | 0.00 | 64 | 1015.1 |
| 20260507021237 | 45 | 217 | 0.9 | 2.6 | 0.00 | 0.00 | 0.00 | 63 | 1015.1 |
| 20260507020735 | 46 | 216 | 0.9 | 2.6 | 0.00 | 0.00 | 0.00 | 62 | 1014.8 |
| 20260507020231 | 46 | 228 | 0.0 | 2.6 | 0.00 | 0.00 | 0.00 | 62 | 1014.8 |
| 20260507015729 | 46 | 207 | 0.0 | 2.6 | 0.00 | 0.00 | 0.00 | 62 | 1014.8 |
| 20260507015226 | 46 | 206 | 0.9 | 2.6 | 0.00 | 0.00 | 0.00 | 61 | 1014.8 |
| 20260507014723 | 46 | 216 | 0.9 | 2.6 | 0.00 | 0.00 | 0.00 | 60 | 1015.1 |
| 20260507014219 | 46 | 216 | 0.9 | 2.6 | 0.00 | 0.00 | 0.00 | 59 | 1015.1 |
| 20260507013716 | 46 | 223 | 0.9 | 2.6 | 0.00 | 0.00 | 0.00 | 59 | 1015.1 |
| 20260507013214 | 46 | 223 | 0.9 | 2.6 | 0.00 | 0.00 | 0.00 | 58 | 1014.8 |
| 20260507012711 | 46 | 232 | 0.0 | 1.7 | 0.00 | 0.00 | 0.00 | 57 | 1014.8 |
| 20260507012206 | 47 | 232 | 0.9 | 2.6 | 0.00 | 0.00 | 0.00 | 57 | 1014.8 |
| 20260507011704 | 47 | 211 | 0.9 | 2.6 | 0.00 | 0.00 | 0.00 | 57 | 1014.8 |
| 20260507011200 | 47 | 198 | 0.9 | 1.7 | 0.00 | 0.00 | 0.00 | 57 | 1014.8 |
| 20260507010700 | 47 | 200 | 0.9 | 2.6 | 0.00 | 0.00 | 0.00 | 57 | 1014.8 |
| 20260507010156 | 47 | 212 | 1.7 | 3.5 | 0.00 | 0.00 | 0.00 | 56 | 1014.8 |
| 20260507005654 | 47 | 219 | 1.7 | 3.5 | 0.00 | 0.00 | 0.00 | 55 | 1014.8 |
| 20260507005155 | 47 | 223 | 0.9 | 3.5 | 0.00 | 0.00 | 0.00 | 56 | 1014.8 |
| 20260507004652 | 47 | 227 | 0.9 | 3.5 | 0.00 | 0.00 | 0.00 | 56 | 1014.8 |
| 20260507004149 | 47 | 207 | 0.9 | 2.6 | 0.00 | 0.00 | 0.00 | 56 | 1014.8 |
| 20260507003646 | 47 | 200 | 0.9 | 2.6 | 0.00 | 0.00 | 0.00 | 57 | 1014.8 |
| 20260507003145 | 47 | 196 | 0.9 | 5.2 | 0.00 | 0.00 | 0.00 | 56 | 1014.8 |
| 20260507002642 | 47 | 196 | 1.7 | 5.2 | 0.00 | 0.00 | 0.00 | 54 | 1014.5 |
| 20260507002138 | 47 | 192 | 1.7 | 3.5 | 0.00 | 0.00 | 0.00 | 54 | 1014.5 |
| 20260507001635 | 47 | 279 | 1.7 | 4.3 | 0.00 | 0.00 | 0.00 | 54 | 1014.5 |
| 20260507001133 | 48 | 184 | 1.7 | 4.3 | 0.00 | 0.00 | 0.00 | 55 | 1014.5 |
| 20260507000629 | 48 | 200 | 1.7 | 4.3 | 0.00 | 0.00 | 0.00 | 54 | 1014.5 |
| 20260507000124 | 48 | 184 | 2.6 | 4.3 | 0.00 | 0.00 | 0.00 | 54 | 1014.5 |
| 20260506235622 | 48 | 187 | 2.6 | 5.2 | 0.00 | 0.00 | 0.00 | 53 | 1014.5 |
| 20260506235122 | 48 | 219 | 2.6 | 5.2 | 0.00 | 0.00 | 0.00 | 53 | 1014.5 |
| 20260506234619 | 48 | 199 | 1.7 | 3.5 | 0.00 | 0.00 | 0.00 | 53 | 1014.5 |
| 20260506234116 | 48 | 236 | 1.7 | 3.5 | 0.00 | 0.00 | 0.00 | 53 | 1014.5 |
| 20260506233613 | 48 | 197 | 2.6 | 4.3 | 0.00 | 0.00 | 0.00 | 52 | 1014.5 |
| 20260506233110 | 48 | 227 | 2.6 | 6.1 | 0.00 | 0.00 | 0.00 | 52 | 1014.5 |
| 20260506232606 | 49 | 226 | 2.6 | 6.1 | 0.00 | 0.00 | 0.00 | 52 | 1014.5 |
| 20260506232102 | 49 | 189 | 2.6 | 6.1 | 0.00 | 0.00 | 0.00 | 50 | 1014.5 |
| 20260506231559 | 49 | 207 | 3.5 | 6.1 | 0.00 | 0.00 | 0.00 | 51 | 1014.5 |
| 20260506231057 | 49 | 226 | 2.6 | 6.1 | 0.00 | 0.00 | 0.00 | 50 | 1014.5 |
| 20260506230553 | 49 | 215 | 3.5 | 6.1 | 0.00 | 0.00 | 0.00 | 51 | 1014.5 |
| 20260506230051 | 49 | 223 | 2.6 | 6.1 | 0.00 | 0.00 | 0.00 | 51 | 1014.5 |
| 20260506225548 | 50 | 213 | 1.7 | 5.2 | 0.00 | 0.00 | 0.00 | 50 | 1014.5 |
| 20260506225044 | 50 | 231 | 1.7 | 5.2 | 0.00 | 0.00 | 0.00 | 51 | 1014.5 |
| 20260506224541 | 50 | 230 | 2.6 | 5.2 | 0.00 | 0.00 | 0.00 | 52 | 1014.5 |
| 20260506224037 | 50 | 224 | 2.6 | 5.2 | 0.00 | 0.00 | 0.00 | 50 | 1014.5 |
| 20260506223533 | 50 | 169 | 1.7 | 4.3 | 0.00 | 0.00 | 0.00 | 50 | 1014.5 |
| 20260506223030 | 51 | 192 | 1.7 | 4.3 | 0.00 | 0.00 | 0.00 | 50 | 1014.5 |
| 20260506222527 | 51 | 233 | 2.6 | 4.3 | 0.00 | 0.00 | 0.00 | 51 | 1014.5 |
| 20260506222023 | 51 | 209 | 3.5 | 6.1 | 0.00 | 0.00 | 0.00 | 51 | 1014.5 |
| 20260506221521 | 50 | 186 | 4.3 | 7.0 | 0.00 | 0.00 | 0.00 | 50 | 1014.5 |
| 20260506221019 | 51 | 219 | 3.5 | 7.0 | 0.00 | 0.00 | 0.00 | 50 | 1014.5 |
| 20260506220514 | 51 | 190 | 3.5 | 7.0 | 0.00 | 0.00 | 0.00 | 49 | 1014.5 |
| 20260506220010 | 51 | 225 | 3.5 | 8.7 | 0.00 | 0.00 | 0.00 | 49 | 1014.5 |
| 20260506215507 | 51 | 162 | 3.5 | 8.7 | 0.00 | 0.00 | 0.00 | 50 | 1014.5 |
| 20260506215003 | 52 | 189 | 3.5 | 7.8 | 0.00 | 0.00 | 0.00 | 49 | 1014.5 |
| 20260506214500 | 52 | 207 | 4.3 | 7.8 | 0.00 | 0.00 | 0.00 | 48 | 1014.5 |
| 20260506213957 | 53 | 221 | 4.3 | 9.6 | 0.00 | 0.00 | 0.00 | 45 | 1014.1 |
| 20260506213455 | 54 | 202 | 4.3 | 10.4 | 0.00 | 0.00 | 0.00 | 46 | 1014.1 |
| 20260506212952 | 54 | 159 | 2.6 | 8.7 | 0.00 | 0.00 | 0.00 | 45 | 1014.1 |
| 20260506212448 | 54 | 212 | 2.6 | 5.2 | 0.00 | 0.00 | 0.00 | 46 | 1014.1 |
| 20260506211943 | 55 | 192 | 2.6 | 8.7 | 0.00 | 0.00 | 0.00 | 45 | 1014.1 |
| 20260506211439 | 55 | 237 | 2.6 | 8.7 | 0.00 | 0.00 | 0.00 | 47 | 1014.5 |
| 20260506210936 | 54 | 209 | 3.5 | 10.4 | 0.00 | 0.00 | 0.00 | 46 | 1014.5 |
| 20260506210433 | 53 | 159 | 4.3 | 10.4 | 0.00 | 0.00 | 0.00 | 46 | 1014.5 |
| 20260506205930 | 54 | 213 | 4.3 | 11.3 | 0.00 | 0.00 | 0.00 | 44 | 1014.5 |
| 20260506205426 | 55 | 226 | 3.5 | 11.3 | 0.00 | 0.00 | 0.00 | 44 | 1014.5 |
| 20260506204922 | 55 | 207 | 4.3 | 8.7 | 0.00 | 0.00 | 0.00 | 44 | 1014.5 |
| 20260506204420 | 55 | 244 | 5.2 | 9.6 | 0.00 | 0.00 | 0.00 | 47 | 1014.5 |
| 20260506203918 | 54 | 230 | 5.2 | 9.6 | 0.00 | 0.00 | 0.00 | 45 | 1014.5 |
| 20260506203415 | 54 | 182 | 6.1 | 12.2 | 0.00 | 0.00 | 0.00 | 44 | 1014.5 |
| 20260506202911 | 55 | 207 | 4.3 | 12.2 | 0.00 | 0.00 | 0.00 | 43 | 1014.5 |
| 20260506202409 | 55 | 157 | 3.5 | 8.7 | 0.00 | 0.00 | 0.00 | 43 | 1014.5 |
| 20260506201905 | 55 | 244 | 4.3 | 8.7 | 0.00 | 0.00 | 0.00 | 46 | 1014.5 |
| 20260506201403 | 55 | 224 | 4.3 | 9.6 | 0.00 | 0.00 | 0.00 | 44 | 1014.5 |
| 20260506200859 | 55 | 183 | 4.3 | 9.6 | 0.00 | 0.00 | 0.00 | 46 | 1014.5 |
| 20260506200355 | 55 | 212 | 5.2 | 8.7 | 0.00 | 0.00 | 0.00 | 46 | 1014.5 |
| 20260506195852 | 55 | 196 | 5.2 | 10.4 | 0.00 | 0.00 | 0.00 | 46 | 1014.8 |
| 20260506195349 | 55 | 208 | 4.3 | 10.4 | 0.00 | 0.00 | 0.00 | 44 | 1014.5 |
| 20260506194846 | 55 | 207 | 4.3 | 9.6 | 0.00 | 0.00 | 0.00 | 46 | 1014.8 |
| 20260506194342 | 55 | 210 | 4.3 | 7.8 | 0.00 | 0.00 | 0.00 | 45 | 1014.8 |
| 20260506193840 | 55 | 214 | 4.3 | 7.8 | 0.00 | 0.00 | 0.00 | 47 | 1014.8 |
| 20260506193337 | 55 | 196 | 4.3 | 7.8 | 0.00 | 0.00 | 0.00 | 45 | 1014.5 |
| 20260506192833 | 56 | 202 | 3.5 | 7.0 | 0.00 | 0.00 | 0.00 | 44 | 1014.5 |
| 20260506192330 | 57 | 215 | 4.3 | 9.6 | 0.00 | 0.00 | 0.00 | 46 | 1014.5 |
| 20260506191827 | 55 | 242 | 3.5 | 9.6 | 0.00 | 0.00 | 0.00 | 43 | 1014.5 |
| 20260506191323 | 55 | 198 | 2.6 | 8.7 | 0.00 | 0.00 | 0.00 | 45 | 1014.5 |
| 20260506190820 | 55 | 173 | 4.3 | 8.7 | 0.00 | 0.00 | 0.00 | 45 | 1014.5 |
| 20260506190316 | 55 | 163 | 5.2 | 12.2 | 0.00 | 0.00 | 0.00 | 43 | 1014.5 |
| 20260506185814 | 55 | 166 | 5.2 | 12.2 | 0.00 | 0.00 | 0.00 | 44 | 1014.5 |
| 20260506185310 | 55 | 195 | 5.2 | 9.6 | 0.00 | 0.00 | 0.00 | 47 | 1014.5 |
| 20260506184808 | 55 | 200 | 4.3 | 9.6 | 0.00 | 0.00 | 0.00 | 43 | 1014.5 |
| 20260506184305 | 55 | 189 | 5.2 | 9.6 | 0.00 | 0.00 | 0.00 | 48 | 1014.5 |
| 20260506183802 | 54 | 184 | 5.2 | 8.7 | 0.00 | 0.00 | 0.00 | 47 | 1014.5 |
| 20260506183257 | 55 | 217 | 5.2 | 8.7 | 0.00 | 0.00 | 0.00 | 48 | 1014.5 |
| 20260506182754 | 55 | 158 | 5.2 | 9.6 | 0.00 | 0.00 | 0.00 | 48 | 1014.5 |
| 20260506182252 | 54 | 207 | 4.3 | 9.6 | 0.00 | 0.00 | 0.00 | 47 | 1014.5 |
| 20260506181749 | 54 | 175 | 4.3 | 9.6 | 0.00 | 0.00 | 0.00 | 45 | 1014.5 |
| 20260506181247 | 55 | 218 | 4.3 | 10.4 | 0.00 | 0.00 | 0.00 | 51 | 1014.5 |
| 20260506180744 | 55 | 194 | 3.5 | 10.4 | 0.00 | 0.00 | 0.00 | 45 | 1014.5 |
| 20260506180239 | 55 | 242 | 3.5 | 8.7 | 0.00 | 0.00 | 0.00 | 51 | 1014.5 |
| 20260506175736 | 54 | 236 | 4.3 | 7.8 | 0.00 | 0.00 | 0.00 | 47 | 1014.8 |
| 20260506175233 | 54 | 194 | 3.5 | 8.7 | 0.00 | 0.00 | 0.00 | 49 | 1014.8 |
| 20260506174731 | 54 | 194 | 3.5 | 8.7 | 0.00 | 0.00 | 0.00 | 47 | 1014.8 |
| 20260506174227 | 54 | 236 | 4.3 | 10.4 | 0.00 | 0.00 | 0.00 | 48 | 1014.8 |
| 20260506173725 | 53 | 175 | 4.3 | 10.4 | 0.00 | 0.00 | 0.00 | 46 | 1014.8 |
| 20260506173222 | 53 | 217 | 3.5 | 10.4 | 0.00 | 0.00 | 0.00 | 47 | 1014.8 |
| 20260506172719 | 54 | 209 | 4.3 | 10.4 | 0.00 | 0.00 | 0.00 | 46 | 1015.1 |
| 20260506172215 | 53 | 204 | 4.3 | 9.6 | 0.00 | 0.00 | 0.00 | 45 | 1015.1 |
| 20260506171713 | 52 | 238 | 5.2 | 10.4 | 0.00 | 0.00 | 0.00 | 48 | 1015.1 |
| 20260506171210 | 53 | 234 | 4.3 | 10.4 | 0.00 | 0.00 | 0.00 | 46 | 1015.1 |
| 20260506170708 | 53 | 205 | 4.3 | 8.7 | 0.00 | 0.00 | 0.00 | 47 | 1015.1 |
| 20260506170204 | 52 | 182 | 3.5 | 8.7 | 0.00 | 0.00 | 0.00 | 48 | 1015.1 |
| 20260506165702 | 53 | 207 | 2.6 | 6.1 | 0.00 | 0.00 | 0.00 | 45 | 1015.1 |
| 20260506165159 | 53 | 149 | 2.6 | 7.0 | 0.00 | 0.00 | 0.00 | 46 | 1015.1 |
| 20260506164656 | 53 | 250 | 3.5 | 7.0 | 0.00 | 0.00 | 0.00 | 47 | 1015.1 |
| 20260506164153 | 52 | 192 | 3.5 | 8.7 | 0.00 | 0.00 | 0.00 | 50 | 1015.1 |
| 20260506163650 | 52 | 210 | 3.5 | 8.7 | 0.00 | 0.00 | 0.00 | 47 | 1015.1 |
| 20260506163145 | 53 | 198 | 2.6 | 7.8 | 0.00 | 0.00 | 0.00 | 51 | 1015.1 |
| 20260506162641 | 53 | 227 | 2.6 | 6.1 | 0.00 | 0.00 | 0.00 | 48 | 1015.1 |
| 20260506162139 | 53 | 315 | 2.6 | 7.8 | 0.00 | 0.00 | 0.00 | 49 | 1015.1 |
| 20260506161636 | 52 | 223 | 4.3 | 7.8 | 0.00 | 0.00 | 0.00 | 48 | 1015.1 |
| 20260506161133 | 51 | 238 | 4.3 | 8.7 | 0.00 | 0.00 | 0.00 | 49 | 1015.1 |
| 20260506160630 | 51 | 222 | 3.5 | 8.7 | 0.00 | 0.00 | 0.00 | 44 | 1015.1 |
| 20260506160127 | 53 | 191 | 3.5 | 8.7 | 0.00 | 0.00 | 0.00 | 48 | 1015.1 |
| 20260506155626 | 52 | 242 | 4.3 | 8.7 | 0.00 | 0.00 | 0.00 | 48 | 1015.1 |
| 20260506155122 | 51 | 169 | 2.6 | 7.8 | 0.00 | 0.00 | 0.00 | 49 | 1015.1 |